THOR ABLESTAR DEB, 2432

Orbit data source: Space-Track

THOR ABLESTAR DEB, 2432 is space debris in LEO originally from a launch on Thu, 05 Dec 1963 UTC launched from the Air Force Western Test Range (AFWTR). Debris objects in space refer to the collection of defunct objects orbiting the Earth. Examples of debris include non-operational satellites, rocket bodies, and fragments generated from explosions, collisions, or faulty payload assembly.

Loading next visibility...
Identifier
2432, 1963-049G
Orbit
LEO
Country
Flag of USUS
Related business
Manufacturer
Unknown
Mission
Spacecraft
Bus & Motor
Unknown
Mass
Unknown
Launch date (UTC)
1963-12-05 (62 years ago)
Launch vehicle
Unknown
Launch site
Air Force Western Test Range (AFWTR)
Object type
Payload
Rocket body
Debris
Shape & HBR
Unknown shape, 0.2 m
Radar Cross Section
Medium (>0.1 m² and <1 m²)

Expand to show TLE details & history
Last TLE update: 10 hours ago

TLE from 10 hours ago
0 THOR ABLESTAR DEB
1 02432U 63049G   26126.58696318  .00000116  00000-0  17116-3 0  9993
2 02432  89.9228  70.9696 0034362 358.2336 181.4128 13.48252686 67098
Epoch: 2026-05-06T14:05Z
TLE epoch observation values (Epoch: 2026-05-06T14:05:13.618Z)
Latitude
0.25001°
Longitude
175.2172°
Altitude
1,107.234 km
Speed
7.286 km/s
True Right ascension
16h 43m 52s
True Declination
0° 14' 55"
Sunlit
Object was in full shadow at epoch
Visualization orbit readout
Latitude
Unknown
Longitude
Unknown
Altitude
Unknown
Speed
Unknown
Apparent Right ascension
Unknown
Apparent Declination
Unknown
Sunlit
N/A
Visualization observer readout
Local Sidereal Time
08:31:39
Azimuth
Unknown
Elevation
Unknown
Doppler factor
Unknown
Orbital elements
Apogee altitude
1,101.36 km
Perigee altitude
1,050.133 km
Semi-major axis
7,453.884 km
Eccentricity
0.00344
Inclination
89.9228°
RAAN
70.9696°
Arg. of periapsis
358.2336°
True anomaly
181.40313°
Mean anomaly
181.4128°
Eccentric anomaly
181.40796°
Mean motion
3.37263 °/min
Orbital period
106.74 mins
BSTAR
0.00017116
Loading maneuver chart data...
Computing Atmospheric mass density...
Loading historical data...
Loading historical data...
Loading historical data...
Loading historical data...
Loading historical data...
Loading historical data...
Loading historical data...

Documentation

Showing up to 5 results
|